Tracking 18032 objects as of 25-March-2017
HD Live streaming from Space Station
objects crossing your sky now

ATLAS 55E R/B

Track ATLAS 55E R/B now!
10-day predictions


NORAD ID: 16137
Int'l Code: 1985-093B
Perigee: 982.8 km
Apogee: 20,312.8 km
Inclination: 63.8 °
Period: 368.3 minutes
Semi major axis: 17018 km
RCS: 2.2883 m2 (large)
Launch date: October 9, 1985
Source: United States (US)
Launch site: AIR FORCE WESTERN TEST RANGE (AFWTR)

Note: This is a ROCKET BODY
Your satellite tracking list
Your tracking list is empty





NASA's NSSDC Master Catalog

Two Line Element Set (TLE):
1 16137U 85093B   17082.94112815 -.00000101 +00000-0 +00000-0 0  9995
2 16137 063.8136 016.1701 5679028 358.8276 245.5071 03.91030847449207
Source of the keplerian elements: AFSPC